Overview Statistics Trail Chart Weather Telemetry Raw packets
 

This is the latest recevied weather packets stored in our database for station/object N1SU-13. If no packets are shown the sender has not sent any weather packets the latest 10 day(s).

<< 47 48 49 50 51 52 53 >>
Time Temp. Humidity Pressure Rain* Wind** Luminosity Snow
1787955590 20° C 64% 1014.8 hPa - - - -
1787955013 20° C 64% 1014.9 hPa - - - -
1787954417 19.44° C 64% 1015 hPa - - - -
1787953781 18.89° C 66% 1015.2 hPa - - - -
1787953196 18.89° C 66% 1015.2 hPa - - - -
1787952560 19.44° C 65% 1015.3 hPa - - - -
1787951892 19.44° C 64% 1015.4 hPa - - - -
1787951193 19.44° C 64% 1015.4 hPa - - - -
1787950590 19.44° C 65% 1015.6 hPa - - - -
1787949891 18.89° C 65% 1015.6 hPa - - - -
1787949271 18.89° C 65% 1015.8 hPa - - - -
1787948677 18.89° C 66% 1015.9 hPa - - - -
1787948079 18.89° C 66% 1015.9 hPa - - - -
1787947504 18.89° C 66% 1016 hPa - - - -
1787946936 18.33° C 67% 1016 hPa - - - -
1787946337 18.33° C 67% 1016.1 hPa - - - -
1787945700 18.33° C 67% 1016.1 hPa - - - -
1787945081 18.33° C 68% 1016.1 hPa - - - -
1787944400 17.78° C 69% 1016.2 hPa - - - -
1787943717 17.78° C 70% 1016.2 hPa - - - -
1787943112 17.78° C 70% 1016.3 hPa - - - -
1787942534 17.78° C 70% 1016.3 hPa - - - -
1787941895 17.78° C 71% 1016.5 hPa - - - -
1787941200 17.78° C 71% 1016.6 hPa - - - -
1787940569 17.22° C 70% 1016.5 hPa - - - -

* Rain since midnight (hover to see other rain measurements)
** Current wind speed in m/s (hover to see current wind gust speed)